Location: Brede
(50.9167°N, 0.6000°E)
Time: 10:55:00
(UTC+00:00)

A-11 Canister half - Pass Details

Date: 02 December 2020
Orbit: 1524 x 1684 km, 47.3° (Epoch: 20 January)

Event Time Altitude Azimuth Distance (km) Brightness Sun altitude
Exits shadow 05:44:47 - 235° (SW) 4,768 11.2 -17.3°
Reaches altitude 10° 05:47:29 10° 232° (SW) 3,944 10.8 -16.9°
Maximum altitude 05:57:20 58° 157° (SSE) 1,895 9.7 -15.4°
Drops below altitude 10° 06:07:00 10° 82° (E) 3,880 12.2 -13.9°
Sets 06:10:09 0° 79° (E) 4,848 12.7 -13.4°
